www.pogodaiklimat.ru

Погода и климат >> Архив погоды >> Украина >> Вилково


ПОГОДА в Вилково

  • Прогноз погоды в Вилково
  • Монитор погоды в Вилково

АРХИВ ПОГОДЫ в Вилково

Время (UTC), дата Ветер
(напр.,м/с)
 
Видим.   Явления Облачность Т
(С)
Тd
(С)
f
(%)
Тe
(С)
Тes
(С)
Комфортность P
(гПа)
Po
(гПа)
Тmin
(С)
Tmax
(С)
R
(мм)
R24
(мм)
S
(см)
03 15.08 штиль 0 10 км 6/0
[Ac trans Ci sp]
+19.2 +18.6 96 +21 +21 комфорт 1008.7 1004.0
06 15.08 С 4 20 км 8/0
[Ac trans]
+20.5 +17.3 82 +24 +26 комфорт 1009.0 1004.3 +18.8
09 15.08 СВ 3 20 км 8/3 600 м
[Sc Cc]
+25.4 +17.0 60 +29 +37 душно 1010.2 1005.6
12 15.08 СЗ 3 20 км 8/0
[Cc]
+29.2 +16.8 47 +33 +41 очень
душно
1009.8 1005.2
15 15.08 С 3 20 км 3/0
[Ac trans]
+28.6 +17.6 51 +33 +34 очень
душно
1009.6 1005.0
18 15.08 СЗ 6 10 км 6/0
[Ac trans]
+22.0 +14.3 62 +25 +25 комфорт 1011.2 1006.5 +30.2
21 15.08 С 6 10 км ясно +18.6 +13.1 70 +19 +19 1013.1 1008.4
00 16.08 СЗ 5 10 км 4/4 600 м
[Sc]
+17.2 +12.9 76 +17 +17 1012.8 1008.0
03 16.08 СЗ 4 10 км ясно +15.8 +12.5 81 +15 +15 1012.8 1008.0
06 16.08 СЗ 3 20 км 8/4 1000 м
[Sc Ci sp]
+18.0 +12.2 69 +18 +20 1013.1 1008.4 +15.6
09 16.08 С 3 20 км 10/10 600 м
[Cb cap]
+20.4 +13.4 64 +23 +23 комфорт 1013.8 1009.1
12 16.08 С 2 20 км 3/1 600 м
[Cu hum Ci sp]
+26.4 +13.5 45 +28 +39 жарко 1012.2 1007.6
18 16.08 штиль 0 10 км ясно +21.4 +16.8 75 +25 +25 комфорт 1012.6 1007.9 +27.6
21 16.08 СЗ 1 10 км ясно +19.2 +10.7 58 +21 +21 комфорт 1013.8 1009.1
00 17.08 С 2 10 км 3/0
[Ci sp]
+17.3 +9.5 60 +18 +18 1014.3 1009.5
03 17.08 С 2 10 км ясно +15.6 +9.0 65 +16 +16 1014.4 1009.6
06 17.08 С 2 20 км ясно +19.0 +11.3 61 +20 +26 1015.0 1010.3 +15.4
09 17.08 С 3 20 км 4/3 600 м
[Cu med, cong Ci fib]
+25.6 +7.6 32 +26 +34 жарко 1014.7 1010.1
12 17.08 З 3 20 км 4/4 600 м
[Cu med, cong Cc]
+28.2 +8.0 28 +28 +34 жарко 1014.0 1009.4
18 17.08 С 2 10 км 8/8 600 м
[Sc]
+22.7 +8.9 41 +24 +24 комфорт 1013.7 1009.0 +28.7
21 17.08 С 2 10 км ясно +20.0 +9.3 50 +22 +22 комфорт 1014.6 1009.9
00 18.08 С 1 10 км ясно +18.2 +9.9 58 +20 +20 1015.2 1010.4
03 18.08 СЗ 1 10 км ясно +15.4 +9.7 69 +16 +16 1015.0 1010.2
06 18.08 С 2 20 км ясно +19.8 +10.2 54 +22 +27 комфорт 1015.7 1011.0 +15.1
09 18.08 СВ 3 20 км 4/4 600 м
[Cu hum]
+26.0 +10.7 38 +27 +34 жарко 1015.6 1011.0
12 18.08 С 3 20 км 4/4 600 м
[Cu med, cong]
+28.2 +10.4 33 +29 +35 жарко 1015.6 1011.0
15 18.08 Ю 1 20 км 3/3 600 м
[Cu med, cong]
+26.2 +14.6 49 +29 +31 жарко 1015.9 1011.3
18 18.08 Ю 2 10 км ясно +22.3 +14.7 62 +26 +26 жарко 1016.7 1012.0 +28.8
21 18.08 Ю 2 10 км ясно +20.4 +15.3 73 +24 +24 комфорт 1017.0 1012.3
00 19.08 штиль 0 10 км ясно +19.6 +17.1 85 +22 +22 комфорт 1017.2 1012.5
03 19.08 штиль 0 10 км ясно +16.4 +15.4 94 +16 +16 1018.0 1013.2
06 19.08 С 2 20 км ясно +22.0 +16.2 70 +26 +31 душно 1019.6 1014.9 +15.4
09 19.08 В 3 20 км ясно +28.5 +12.7 38 +30 +42 жарко 1018.8 1014.2
12 19.08 ЮВ 3 20 км ясно +29.3 +11.3 33 +30 +40 жарко 1019.1 1014.5
15 19.08 Ю 2 20 км ясно +26.7 +13.9 45 +29 +31 жарко 1019.4 1014.8
18 19.08 Ю 2 10 км ясно +23.3 +16.3 65 +28 +28 душно 1019.6 1014.9 +29.9
21 19.08 СЗ 1 10 км ясно +20.2 +17.4 84 +24 +24 комфорт 1019.9 1015.2
00 20.08 С 1 10 км ясно +17.7 +15.3 86 +19 +19 1019.9 1015.1
06 20.08 СВ 1 20 км ясно +22.3 +16.5 70 +27 +33 душно 1020.8 1016.1 +16.4
12 20.08 В 2 20 км ясно +29.7 +14.9 41 +32 +44 душно 1021.1 1016.5
18 20.08 штиль 0 10 км ясно +22.8 +16.9 69 +28 +28 душно 1021.3 1016.6 +30.5
00 21.08 СЗ 1 10 км ясно +20.8 +15.9 74 +25 +25 комфорт 1020.2 1015.5
06 21.08 СВ 3 20 км ясно +24.4 +15.9 59 +28 +32 душно 1019.7 1015.0 +19.4
12 21.08 СВ 3 20 км ясно +31.8 +16.9 41 +35 +45 очень
душно
1018.1 1013.5
18 21.08 штиль 0 10 км 1/0
[Ci fib]
+26.4 +19.0 64 +32 +32 очень
душно
1017.1 1012.5 +32.9

 

Местоположение метеостанции Вилково (Одесская область, Украина): широта 45.82 долгота 29.58 высота над уровнем моря 40 м.

В архиве по умолчанию представлена погода в Вилково за последнюю неделю. Архивные данные за месяц целиком и за предыдущие месяцы, начиная с января 2011 года, Вы можете получить, выбрав интересующий диапазон дат из раскрывающегося списка и нажав кнопку "Ввод!".


*Определитесь, кто Вы:
робот инопланетянин человек

Внимание! Время в таблицах - всемирное. Для получения местного времени необходимо прибавить поправку, которая равна 2 ч.

Смотрите также архив погоды в соседних городах и на ближайших метеорологических станциях:

Погода в Сарате (Одесская область, Украина) (23 км)
Погода в Чадыр-Лунге (Молдова) (61 км)
Погода в Белгород-Днестровском (Одесская область, Украина) (73 км)
Погода в Сулине (Румыния) (73 км)
Погода в Измаиле (Одесская область, Украина) (76 км)
Погода в Болграде (Одесская область, Украина) (76 км)
Погода в Горгове (Румыния) (78 км)
Погода в Штефан Водэ (Молдова) (78 км)
Погода в Комрате (Молдова) (91 км)
Погода в Махмудиа (Румыния) (91 км)

Пояснения к столбцам:

Ветер - указаны скорость ветра в м/с - средняя за 10 мин, порывы в срок и между сроками (в фигурных скобках) и направление, откуда дует ветер: С - северный, СВ - северо-восточный, В - восточный, ЮВ - юго-восточный, Ю - южный, ЮЗ - юго-западный, З - западный, СЗ - северо-западный.
Видимость - горизонтальная дальность видимости в метрах или километрах. При видимости от 1 до 10 км при отсутствии осадков обычно наблюдается дымка, при ухудшении видимости до 1 км и менее - туман. В сухую погоду видимость может ухудшаться дымом, пылью или мглою.
Явления - указаны атмосферные явления, наблюдавшиеся в срок или в последний час перед сроком; фигурными скобками обозначены явления, наблюдавшиеся между сроками (за 1-3 часа до срока); квадратными скобками обозначены град или гололедные отложения с указанием их диаметра в мм.
Облачность - указаны через наклонную черту общая и нижняя облачность в баллах и высота нижней границы облаков в метрах; квадратными скобками обозначены формы облаков: Ci - перистые, Cs - перисто-слоистые, Cc - перисто-кучевые, Ac - высококучевые, As - высокослоистые, Sc - слоисто-кучевые, Ns - слоисто-дождевые, Cu - кучевые, Cb - кучево-дождевые. Подробнее классификацию облаков см. в Атласе облаков (PDF).
T - Температура воздуха - температура, измеренная на высоте 2 м над землей.
Td - Температура точки росы - температура, при понижении до которой содержащийся в воздухе водяной пар достигнет насыщения.
f - Относительная влажность воздуха - влажноcть воздуха, измеренная на высоте 2 м над землей.
Te - Эффективная температура - температура, которую ощущает одетый по сезону человек в тени. Характеристика душности погоды. При расчете учитывается влияние влажности воздуха и скорости ветра на теплоощущения человека.
Tes - Эффективная температура на солнце - температура, которую ощущает человек, с поправкой на солнечный нагрев. Характеристика знойности погоды. Зависит от высоты солнца над горизонтом, облачности и скорости ветра. Ночью, в пасмурную погоду, а также при ветре 12 м/с и более поправка равна нулю.
P - Атмосферное давление - приведенное к уровню моря атмосферное давление.
Po - Атмосферное давление - измеренное на уровне метеостанции атмосферное давление.
Tmin - Минимальная температура - минимум температуры воздуха на высоте 2 м над землей.
Tmax - Максимальная температура - максимум температуры воздуха на высоте 2 м над землей.
R - Количество осадков - Количество выпавших осадков за период времени, мм. При наведении курсора мыши на число - период времени, за который выпало указанное количество осадков.
R24 - Количество осадков - Количество выпавших осадков за 24 часа, мм.
S - Снежный покров - Высота снежного покрова, см. При наведении курсора мыши на число - состояние снежного покрова и степень покрытия местности в баллах.